Radiation Dose at Monitoring Post of Fukushima Daini Nuclear Power Station
Date,Time,MP-1(microSv/h),MP-2(microSv/h),MP-3(microSv/h),MP-4(microSv/h),MP-5(microSv/h),MP-6(microSv/h),MP-7(microSv/h),Wind Direction,Wind Velocity(m/s),Rain
2021/09/06,00:00,0.153,0.142,0.221,0.216,0.223,0.119,0.075,north-northwest,5.7,Yes
2021/09/06,00:10,0.155,0.141,0.222,0.215,0.225,0.118,0.077,north,5.1,Yes
2021/09/06,00:20,0.154,0.141,0.222,0.216,0.224,0.119,0.076,north-northwest,5.5,Yes
2021/09/06,00:30,0.155,0.141,0.222,0.215,0.224,0.119,0.077,north-northwest,5.5,Yes
2021/09/06,00:40,0.154,0.142,0.223,0.215,0.224,0.118,0.076,north-northwest,5.6,Yes
2021/09/06,00:50,0.154,0.142,0.223,0.214,0.223,0.119,0.077,north-northwest,5.7,Yes
2021/09/06,01:00,0.155,0.141,0.222,0.217,0.226,0.119,0.077,north-northwest,5.9,Yes
2021/09/06,01:10,0.154,0.141,0.223,0.215,0.224,0.119,0.077,north-northwest,5.3,Yes
2021/09/06,01:20,0.155,0.143,0.220,0.216,0.225,0.118,0.077,north-northwest,5.7,Yes
2021/09/06,01:30,0.154,0.142,0.223,0.215,0.223,0.120,0.076,north-northwest,6.5,Yes
2021/09/06,01:40,0.155,0.140,0.221,0.216,0.225,0.119,0.076,north-northwest,6.6,Yes
2021/09/06,01:50,0.155,0.142,0.223,0.214,0.224,0.119,0.077,north-northwest,7.0,Yes
2021/09/06,02:00,0.156,0.142,0.221,0.215,0.224,0.119,0.077,north-northwest,7.2,Yes
2021/09/06,02:10,0.155,0.142,0.222,0.216,0.225,0.119,0.076,north-northwest,6.5,Yes
2021/09/06,02:20,0.155,0.143,0.222,0.215,0.224,0.120,0.077,north-northwest,7.0,Yes
2021/09/06,02:30,0.155,0.142,0.224,0.215,0.225,0.120,0.077,north-northwest,6.5,Yes
2021/09/06,02:40,0.155,0.143,0.223,0.215,0.224,0.120,0.077,north-northwest,7.1,Yes
2021/09/06,02:50,0.155,0.141,0.222,0.216,0.224,0.120,0.077,north-northwest,6.1,Yes
2021/09/06,03:00,0.157,0.143,0.221,0.215,0.224,0.121,0.078,north-northwest,6.7,Yes
2021/09/06,03:10,0.155,0.141,0.222,0.215,0.224,0.120,0.078,northwest,7.7,Yes
2021/09/06,03:20,0.156,0.143,0.221,0.215,0.225,0.121,0.077,north-northwest,7.9,Yes
2021/09/06,03:30,0.154,0.142,0.222,0.216,0.224,0.120,0.077,north-northwest,7.7,Yes
2021/09/06,03:40,0.156,0.143,0.221,0.216,0.224,0.120,0.078,north-northwest,7.3,Yes
2021/09/06,03:50,0.156,0.142,0.222,0.215,0.225,0.121,0.078,north-northwest,7.5,Yes
2021/09/06,04:00,0.156,0.143,0.222,0.215,0.223,0.119,0.078,north-northwest,7.5,Yes
2021/09/06,04:10,0.155,0.142,0.221,0.215,0.225,0.120,0.076,north-northwest,7.1,Yes
2021/09/06,04:20,0.155,0.142,0.222,0.214,0.223,0.120,0.078,north-northwest,7.6,Yes
2021/09/06,04:30,0.155,0.142,0.220,0.214,0.225,0.120,0.077,northwest,8.1,Yes
2021/09/06,04:40,0.156,0.142,0.221,0.215,0.224,0.119,0.077,north-northwest,7.9,Yes
2021/09/06,04:50,0.154,0.142,0.220,0.215,0.225,0.120,0.078,northwest,8.1,Yes
2021/09/06,05:00,0.155,0.142,0.222,0.214,0.223,0.119,0.077,north-northwest,7.8,Yes
2021/09/06,05:10,0.154,0.142,0.220,0.215,0.225,0.120,0.078,north-northwest,7.8,Yes
2021/09/06,05:20,0.156,0.141,0.221,0.215,0.222,0.119,0.077,north-northwest,8.1,Yes
2021/09/06,05:30,0.154,0.142,0.221,0.214,0.226,0.119,0.077,north-northwest,7.9,Yes
2021/09/06,05:40,0.155,0.141,0.220,0.215,0.224,0.119,0.077,north-northwest,7.7,Yes
2021/09/06,05:50,0.154,0.142,0.221,0.214,0.225,0.119,0.077,north-northwest,8.7,Yes
2021/09/06,06:00,0.154,0.141,0.220,0.214,0.223,0.119,0.077,north-northwest,7.4,Yes
2021/09/06,06:10,0.153,0.141,0.220,0.213,0.225,0.119,0.077,northwest,8.3,Yes
2021/09/06,06:20,0.155,0.141,0.221,0.214,0.224,0.119,0.076,north-northwest,8.1,Yes
2021/09/06,06:30,0.154,0.141,0.220,0.212,0.225,0.120,0.076,north-northwest,7.2,Yes
2021/09/06,06:40,0.155,0.141,0.220,0.216,0.223,0.118,0.077,north-northwest,8.1,Yes
2021/09/06,06:50,0.154,0.142,0.220,0.212,0.225,0.119,0.076,north-northwest,8.1,Yes
2021/09/06,07:00,0.154,0.140,0.220,0.214,0.222,0.118,0.076,north-northwest,7.1,Yes
2021/09/06,07:10,0.154,0.141,0.220,0.213,0.224,0.119,0.076,north-northwest,8.1,Yes
2021/09/06,07:20,0.154,0.140,0.220,0.214,0.223,0.119,0.077,northwest,8.8,Yes
2021/09/06,07:30,0.153,0.142,0.221,0.214,0.224,0.118,0.077,north-northwest,8.6,Yes
2021/09/06,07:40,0.155,0.141,0.221,0.215,0.224,0.121,0.077,northwest,8.3,Yes
2021/09/06,07:50,0.155,0.143,0.223,0.214,0.226,0.120,0.078,north-northwest,7.6,Yes
2021/09/06,08:00,0.156,0.142,0.221,0.217,0.224,0.121,0.078,north-northwest,7.3,Yes
2021/09/06,08:10,0.155,0.143,0.222,0.215,0.225,0.120,0.078,north-northwest,6.7,Yes
2021/09/06,08:20,0.155,0.143,0.221,0.216,0.224,0.121,0.078,north-northwest,5.8,Yes
2021/09/06,08:30,0.155,0.143,0.223,0.214,0.226,0.120,0.079,north-northwest,6.8,Yes
2021/09/06,08:40,0.156,0.143,0.222,0.215,0.225,0.121,0.079,north,5.1,Yes
2021/09/06,08:50,0.156,0.142,0.222,0.215,0.226,0.121,0.080,north-northwest,6.6,Yes
2021/09/06,09:00,0.157,0.144,0.221,0.217,0.227,0.123,0.081,north-northwest,7.4,Yes
2021/09/06,09:10,0.157,0.144,0.224,0.215,0.227,0.124,0.082,north-northwest,7.3,Yes
2021/09/06,09:20,0.158,0.146,0.223,0.218,0.228,0.125,0.084,north-northwest,7.5,Yes
2021/09/06,09:30,0.159,0.147,0.226,0.218,0.229,0.124,0.084,north-northwest,6.9,Yes
2021/09/06,09:40,0.159,0.148,0.226,0.218,0.230,0.124,0.083,north-northwest,6.2,Yes
2021/09/06,09:50,0.158,0.147,0.226,0.217,0.228,0.125,0.083,north-northwest,6.0,Yes
2021/09/06,10:00,0.158,0.148,0.224,0.219,0.230,0.124,0.082,northwest,6.5,Yes
2021/09/06,10:10,0.156,0.145,0.225,0.217,0.226,0.124,0.083,north-northwest,5.6,Yes
2021/09/06,10:20,0.157,0.146,0.224,0.218,0.230,0.123,0.083,northwest,5.5,Yes
2021/09/06,10:30,0.159,0.146,0.226,0.218,0.227,0.125,0.083,north-northwest,5.6,Yes
2021/09/06,10:40,0.160,0.148,0.225,0.218,0.230,0.125,0.083,north-northwest,5.5,Yes
2021/09/06,10:50,0.160,0.146,0.226,0.219,0.228,0.125,0.084,north-northwest,6.0,Yes
2021/09/06,11:00,0.159,0.148,0.224,0.219,0.229,0.124,0.084,northwest,6.5,Yes
2021/09/06,11:10,0.160,0.147,0.225,0.217,0.229,0.126,0.085,north-northwest,6.7,Yes
2021/09/06,11:20,0.160,0.149,0.225,0.219,0.231,0.126,0.085,north-northwest,5.8,Yes
2021/09/06,11:30,0.161,0.148,0.225,0.220,0.230,0.126,0.085,north-northwest,5.8,Yes
2021/09/06,11:40,0.160,0.148,0.226,0.219,0.230,0.125,0.084,north-northwest,5.9,Yes
2021/09/06,11:50,0.159,0.147,0.226,0.218,0.228,0.124,0.084,north-northwest,6.0,Yes
2021/09/06,12:00,0.159,0.147,0.224,0.218,0.229,0.125,0.082,north-northwest,6.4,Yes
2021/09/06,12:10,0.158,0.146,0.225,0.218,0.229,0.123,0.082,north-northwest,6.4,Yes
2021/09/06,12:20,0.157,0.147,0.225,0.218,0.229,0.125,0.082,north-northwest,6.9,Yes
2021/09/06,12:30,0.158,0.146,0.226,0.220,0.230,0.125,0.083,north-northwest,7.0,Yes
2021/09/06,12:40,0.157,0.148,0.225,0.217,0.227,0.123,0.083,north-northwest,6.7,Yes
2021/09/06,12:50,0.157,0.146,0.224,0.219,0.229,0.122,0.081,north-northwest,6.8,Yes
2021/09/06,13:00,0.156,0.146,0.223,0.217,0.226,0.122,0.081,north-northwest,6.7,Yes
2021/09/06,13:10,0.156,0.144,0.223,0.218,0.229,0.121,0.080,north-northwest,7.1,Yes
2021/09/06,13:20,0.154,0.144,0.222,0.215,0.226,0.121,0.079,north,7.3,Yes
2021/09/06,13:30,0.154,0.143,0.223,0.217,0.227,0.120,0.078,north-northwest,6.4,Yes
2021/09/06,13:40,0.151,0.143,0.221,0.215,0.224,0.119,0.079,north-northwest,7.4,Yes
2021/09/06,13:50,0.152,0.142,0.222,0.216,0.225,0.120,0.078,north-northwest,7.2,Yes
2021/09/06,14:00,0.151,0.142,0.219,0.214,0.225,0.118,0.078,north-northwest,7.3,Yes
2021/09/06,14:10,0.152,0.141,0.221,0.213,0.224,0.118,0.078,north,7.6,Yes
2021/09/06,14:20,0.151,0.141,0.219,0.215,0.224,0.119,0.077,north-northwest,6.6,Yes
2021/09/06,14:30,0.151,0.141,0.221,0.213,0.223,0.118,0.077,north,7.8,Yes
2021/09/06,14:40,0.152,0.141,0.219,0.214,0.224,0.118,0.077,north-northwest,6.7,Yes
2021/09/06,14:50,0.149,0.141,0.221,0.213,0.222,0.117,0.076,north-northwest,7.3,Yes
2021/09/06,15:00,0.152,0.140,0.219,0.214,0.224,0.118,0.076,north-northwest,6.5,Yes
2021/09/06,15:10,0.150,0.141,0.220,0.212,0.224,0.118,0.076,north-northwest,7.9,Yes
2021/09/06,15:20,0.150,0.140,0.219,0.214,0.223,0.118,0.076,north-northwest,9.2,Yes
2021/09/06,15:30,0.151,0.140,0.220,0.212,0.224,0.118,0.076,north-northwest,8.3,No
2021/09/06,15:40,0.151,0.140,0.219,0.214,0.222,0.117,0.077,north-northwest,8.5,No
2021/09/06,15:50,0.152,0.140,0.221,0.212,0.225,0.118,0.076,north-northwest,8.5,Yes
2021/09/06,16:00,0.153,0.140,0.218,0.213,0.222,0.118,0.076,north-northwest,8.6,Yes
2021/09/06,16:10,0.153,0.141,0.220,0.212,0.224,0.118,0.076,north-northwest,8.4,Yes
2021/09/06,16:20,0.153,0.141,0.219,0.213,0.221,0.118,0.077,north-northwest,8.4,Yes
2021/09/06,16:30,0.153,0.140,0.221,0.213,0.223,0.117,0.077,northwest,7.3,Yes
2021/09/06,16:40,0.153,0.140,0.220,0.213,0.222,0.118,0.076,north-northwest,8.5,Yes
2021/09/06,16:50,0.154,0.141,0.221,0.213,0.224,0.118,0.076,north-northwest,7.8,Yes
2021/09/06,17:00,0.152,0.141,0.220,0.212,0.222,0.118,0.077,north-northwest,8.2,Yes
2021/09/06,17:10,0.153,0.140,0.221,0.213,0.222,0.117,0.076,northwest,7.7,No
2021/09/06,17:20,0.152,0.140,0.219,0.213,0.224,0.118,0.076,north-northwest,8.8,Yes
2021/09/06,17:30,0.154,0.140,0.220,0.213,0.222,0.117,0.077,north-northwest,7.9,Yes
2021/09/06,17:40,0.152,0.141,0.219,0.212,0.223,0.117,0.076,north-northwest,9.0,Yes
2021/09/06,17:50,0.154,0.140,0.219,0.212,0.222,0.117,0.076,north-northwest,7.8,Yes
2021/09/06,18:00,0.153,0.141,0.218,0.213,0.223,0.118,0.077,north-northwest,8.1,Yes
2021/09/06,18:10,0.154,0.141,0.220,0.212,0.222,0.117,0.076,north-northwest,6.2,Yes
2021/09/06,18:20,0.153,0.141,0.219,0.212,0.224,0.117,0.077,north-northwest,4.3,Yes
2021/09/06,18:30,0.154,0.140,0.220,0.214,0.223,0.117,0.076,north,5.7,Yes
2021/09/06,18:40,0.152,0.140,0.219,0.213,0.224,0.118,0.076,north-northeast,6.4,Yes
2021/09/06,18:50,0.153,0.141,0.219,0.213,0.221,0.117,0.076,north-northeast,7.8,Yes
2021/09/06,19:00,0.153,0.141,0.218,0.212,0.225,0.118,0.076,northeast,9.8,Yes
2021/09/06,19:10,0.153,0.140,0.219,0.213,0.222,0.118,0.076,northeast,9.5,Yes
2021/09/06,19:20,0.151,0.141,0.217,0.211,0.224,0.117,0.077,northeast,10.4,Yes
2021/09/06,19:30,0.153,0.139,0.220,0.212,0.222,0.117,0.076,northeast,9.0,Yes
2021/09/06,19:40,0.152,0.140,0.218,0.212,0.223,0.118,0.076,northeast,8.8,Yes
2021/09/06,19:50,0.153,0.140,0.216,0.210,0.223,0.119,0.076,north-northeast,5.4,Yes
2021/09/06,20:00,0.152,0.141,0.217,0.211,0.223,0.117,0.076,northeast,5.3,Yes
2021/09/06,20:10,0.152,0.140,0.218,0.212,0.222,0.118,0.077,northeast,5.3,Yes
2021/09/06,20:20,0.153,0.141,0.217,0.212,0.224,0.117,0.076,north-northeast,5.1,Yes
2021/09/06,20:30,0.153,0.140,0.218,0.211,0.224,0.117,0.076,north-northeast,4.3,Yes
2021/09/06,20:40,0.152,0.141,0.218,0.212,0.223,0.117,0.077,north-northeast,4.4,Yes
2021/09/06,20:50,0.152,0.141,0.218,0.213,0.224,0.118,0.076,north-northwest,3.4,Yes
2021/09/06,21:00,0.153,0.141,0.218,0.213,0.224,0.119,0.077,northwest,3.1,Yes
2021/09/06,21:10,0.152,0.140,0.218,0.213,0.224,0.118,0.077,northwest,4.2,Yes
2021/09/06,21:20,0.153,0.141,0.219,0.212,0.221,0.119,0.078,northwest,3.2,Yes
2021/09/06,21:30,0.153,0.141,0.218,0.212,0.225,0.119,0.078,northwest,4.5,Yes
2021/09/06,21:40,0.153,0.141,0.219,0.212,0.223,0.118,0.078,northwest,5.6,Yes
2021/09/06,21:50,0.153,0.141,0.217,0.213,0.224,0.117,0.077,north-northwest,5.9,Yes
2021/09/06,22:00,0.153,0.140,0.217,0.212,0.221,0.118,0.078,northwest,7.5,Yes
2021/09/06,22:10,0.152,0.140,0.216,0.210,0.223,0.117,0.076,north-northwest,7.5,Yes
2021/09/06,22:20,0.151,0.140,0.218,0.211,0.221,0.118,0.078,north-northwest,7.7,Yes
2021/09/06,22:30,0.152,0.140,0.217,0.212,0.224,0.118,0.076,north-northwest,7.2,Yes
2021/09/06,22:40,0.152,0.140,0.218,0.211,0.222,0.118,0.076,northwest,7.7,Yes
2021/09/06,22:50,0.151,0.141,0.216,0.212,0.224,0.116,0.077,northwest,7.4,Yes
2021/09/06,23:00,0.151,0.139,0.218,0.212,0.222,0.118,0.076,northwest,7.6,Yes
2021/09/06,23:10,0.151,0.140,0.218,0.211,0.224,0.117,0.076,northwest,7.2,Yes
2021/09/06,23:20,0.151,0.140,0.218,0.213,0.222,0.116,0.075,north-northwest,8.1,Yes
2021/09/06,23:30,0.152,0.140,0.217,0.211,0.224,0.116,0.076,north-northwest,8.5,Yes
2021/09/06,23:40,0.152,0.139,0.218,0.213,0.222,0.118,0.075,north-northwest,9.8,Yes
2021/09/06,23:50,0.152,0.140,0.218,0.211,0.223,0.117,0.077,north-northwest,7.9,Yes
